• In Latvia
  • List of Countries
  • For 7 days
  • Water Temperature
  • Satellite Maps
  • Weather Map
  • Weather Widgets
  • user-avatar
    Login

    Hourly Weather Liverpool

    Today, 20 September, Thursday

    Time Temperature Precipitation Wind Pressure Humidity
    00:00 +10°C° 0.2 mm 7 mps 756 mmHg 82%
    01:00 +10°C° 0.2 mm 6 mps 756 mmHg 83%
    02:00 +10°C° 0.2 mm 6 mps 756 mmHg 85%
    03:00 +10°C° 0.2 mm 5 mps 756 mmHg 86%
    04:00 +10°C° 0.2 mm 5 mps 756 mmHg 87%
    05:00 +11°C° 0.2 mm 4 mps 756 mmHg 88%
    06:00 +11°C° 0.2 mm 4 mps 756 mmHg 89%
    07:00 +11°C° 0.2 mm 3 mps 756 mmHg 89%
    08:00 +12°C° 0.2 mm 3 mps 755 mmHg 89%
    09:00 +13°C° 0.2 mm 2 mps 755 mmHg 89%
    10:00 +13°C° 0.2 mm 2 mps 754 mmHg 88%
    11:00 +12°C° 0.2 mm 3 mps 754 mmHg 88%
    12:00 +13°C° 0.2 mm 3 mps 753 mmHg 88%
    13:00 +13°C° 2.4 mm 3 mps 752 mmHg 90%
    14:00 +14°C° 2.4 mm 4 mps 751 mmHg 92%
    15:00 +14°C° 2.4 mm 5 mps 749 mmHg 94%
    16:00 +15°C° 1.6 mm 5 mps 748 mmHg 93%
    17:00 +15°C° 1.6 mm 6 mps 747 mmHg 92%
    18:00 +16°C° 1.6 mm 6 mps 746 mmHg 92%
    19:00 +16°C° 1 mm 6 mps 745 mmHg 91%
    20:00 +16°C° 1 mm 7 mps 744 mmHg 91%
    21:00 +16°C° 1 mm 7 mps 744 mmHg 91%
    22:00 +15°C° 0.5 mm 8 mps 744 mmHg 89%
    23:00 +12°C° 0.5 mm 9 mps 744 mmHg 88%

    Tomorrow, 21 September, Friday

    Time Temperature Precipitation Wind Pressure Humidity
    00:00 +9°C° 0.5 mm 10 mps 745 mmHg 87%
    01:00 +10°C° 0.5 mm 9 mps 746 mmHg 85%
    02:00 +8°C° 0.5 mm 9 mps 747 mmHg 84%
    03:00 +7°C° 0.5 mm 9 mps 749 mmHg 82%
    04:00 +7°C° 0.3 mm 9 mps 749 mmHg 81%
    05:00 +7°C° 0.3 mm 9 mps 750 mmHg 79%
    06:00 +7°C° 0.3 mm 9 mps 750 mmHg 78%
    07:00 +8°C° 0.2 mm 10 mps 751 mmHg 76%
    08:00 +8°C° 0.2 mm 10 mps 751 mmHg 75%
    09:00 +9°C° 0.2 mm 11 mps 751 mmHg 73%
    10:00 +11°C° 0.3 mm 11 mps 752 mmHg 71%
    11:00 +10°C° 0.3 mm 12 mps 753 mmHg 68%
    12:00 +12°C° 0.3 mm 13 mps 753 mmHg 65%
    13:00 +12°C° 0.2 mm 12 mps 754 mmHg 64%
    14:00 +12°C° 0.2 mm 11 mps 755 mmHg 63%
    15:00 +13°C° 0.2 mm 10 mps 756 mmHg 62%
    16:00 +12°C° 0 mm 9 mps 757 mmHg 65%
    17:00 +11°C° 0 mm 9 mps 757 mmHg 68%
    18:00 +10°C° 0 mm 8 mps 758 mmHg 71%
    19:00 +10°C° 0 mm 7 mps 759 mmHg 73%
    20:00 +9°C° 0 mm 7 mps 759 mmHg 74%
    21:00 +9°C° 0 mm 6 mps 760 mmHg 76%
    22:00 +8°C° 0 mm 6 mps 761 mmHg 76%
    23:00 +8°C° 0 mm 6 mps 761 mmHg 77%

    Day after tomorrow, 22 September, Saturday

    Time Temperature Precipitation Wind Pressure Humidity
    00:00 +8°C° 0 mm 6 mps 761 mmHg 77%
    01:00 +8°C° 0 mm 6 mps 762 mmHg 78%
    02:00 +8°C° 0 mm 6 mps 762 mmHg 78%
    03:00 +8°C° 0 mm 6 mps 762 mmHg 79%
    04:00 +8°C° 0 mm 6 mps 762 mmHg 78%
    05:00 +8°C° 0 mm 6 mps 763 mmHg 78%
    06:00 +8°C° 0 mm 6 mps 763 mmHg 77%
    07:00 +9°C° 0 mm 6 mps 763 mmHg 74%
    08:00 +10°C° 0 mm 6 mps 763 mmHg 71%
    09:00 +11°C° 0 mm 6 mps 763 mmHg 68%
    10:00 +11°C° 0 mm 6 mps 764 mmHg 66%
    11:00 +13°C° 0 mm 5 mps 764 mmHg 63%
    12:00 +13°C° 0 mm 5 mps 764 mmHg 60%
    13:00 +13°C° 0 mm 5 mps 764 mmHg 60%
    14:00 +13°C° 0 mm 4 mps 763 mmHg 61%
    15:00 +13°C° 0 mm 4 mps 763 mmHg 61%
    16:00 +13°C° 0 mm 3 mps 763 mmHg 63%
    17:00 +13°C° 0 mm 2 mps 763 mmHg 66%
    18:00 +12°C° 0 mm 1 mps 763 mmHg 69%
    19:00 +12°C° 0 mm 1 mps 763 mmHg 70%
    20:00 +12°C° 0 mm 1 mps 763 mmHg 70%
    21:00 +10°C° 0 mm 0 mps 763 mmHg 71%
    22:00 +11°C° 0.4 mm 1 mps 762 mmHg 74%
    23:00 +10°C° 0.4 mm 2 mps 761 mmHg 78%

    23 September, Sunday

    Time Temperature Precipitation Wind Pressure Humidity
    00:00 +9°C° 0.4 mm 3 mps 760 mmHg 82%
    01:00 +8°C° 1.6 mm 4 mps 759 mmHg 84%
    02:00 +8°C° 1.6 mm 6 mps 757 mmHg 86%
    03:00 +7°C° 1.6 mm 8 mps 756 mmHg 88%
    04:00 +6°C° 6.3 mm 9 mps 754 mmHg 88%
    05:00 +6°C° 6.3 mm 10 mps 752 mmHg 89%
    06:00 +4°C° 6.3 mm 11 mps 751 mmHg 90%
    07:00 +4°C° 3.8 mm 11 mps 750 mmHg 89%
    08:00 +4°C° 3.8 mm 11 mps 749 mmHg 88%
    09:00 +4°C° 3.8 mm 11 mps 748 mmHg 87%
    10:00 +5°C° 2.4 mm 12 mps 749 mmHg 87%
    11:00 +5°C° 2.4 mm 12 mps 749 mmHg 87%
    12:00 +5°C° 2.4 mm 13 mps 750 mmHg 87%
    13:00 +5°C° 0.6 mm 13 mps 752 mmHg 83%
    14:00 +7°C° 0.6 mm 13 mps 754 mmHg 79%
    15:00 +7°C° 0.6 mm 12 mps 757 mmHg 75%
    16:00 +7°C° 0 mm 11 mps 759 mmHg 72%
    17:00 +7°C° 0 mm 10 mps 761 mmHg 69%
    18:00 +7°C° 0 mm 9 mps 763 mmHg 66%
    19:00 +7°C° 0 mm 9 mps 764 mmHg 65%
    20:00 +6°C° 0 mm 8 mps 766 mmHg 65%
    21:00 +6°C° 0 mm 7 mps 767 mmHg 64%
    22:00 +7°C° 0 mm 6 mps 768 mmHg 66%
    23:00 +7°C° 0 mm 6 mps 769 mmHg 69%

    24 September, Monday

    Time Temperature Precipitation Wind Pressure Humidity
    00:00 +7°C° 0 mm 6 mps 770 mmHg 72%
    01:00 +6°C° 0 mm 5 mps 771 mmHg 74%
    02:00 +6°C° 0 mm 5 mps 771 mmHg 76%
    03:00 +6°C° 0 mm 5 mps 772 mmHg 78%
    04:00 +6°C° 0 mm 5 mps 773 mmHg 79%
    05:00 +6°C° 0 mm 5 mps 773 mmHg 80%
    06:00 +6°C° 0 mm 4 mps 774 mmHg 80%
    07:00 +7°C° 0.1 mm 5 mps 774 mmHg 77%
    08:00 +9°C° 0.1 mm 6 mps 775 mmHg 74%
    09:00 +10°C° 0.1 mm 6 mps 775 mmHg 71%
    10:00 +11°C° 0.1 mm 7 mps 775 mmHg 68%
    11:00 +11°C° 0.1 mm 7 mps 776 mmHg 65%
    12:00 +12°C° 0.1 mm 7 mps 776 mmHg 62%
    13:00 +12°C° 0 mm 7 mps 776 mmHg 63%
    14:00 +12°C° 0 mm 7 mps 776 mmHg 64%
    15:00 +13°C° 0 mm 6 mps 776 mmHg 65%
    16:00 +11°C° 0 mm 6 mps 776 mmHg 69%
    17:00 +10°C° 0 mm 5 mps 776 mmHg 74%
    18:00 +10°C° 0 mm 4 mps 776 mmHg 79%
    19:00 +8°C° 0 mm 4 mps 776 mmHg 81%
    20:00 +8°C° 0 mm 4 mps 776 mmHg 82%
    21:00 +8°C° 0 mm 4 mps 777 mmHg 84%
    22:00 +8°C° 0 mm 4 mps 777 mmHg 84%
    23:00 +8°C° 0 mm 3 mps 777 mmHg 85%

    25 September, Tuesday

    Time Temperature Precipitation Wind Pressure Humidity
    00:00 +8°C° 0 mm 3 mps 777 mmHg 85%
    01:00 +8°C° 0 mm 3 mps 777 mmHg 86%
    02:00 +8°C° 0 mm 3 mps 777 mmHg 87%
    03:00 +8°C° 0 mm 3 mps 776 mmHg 87%
    04:00 +8°C° 0 mm 3 mps 776 mmHg 88%
    05:00 +8°C° 0 mm 3 mps 776 mmHg 88%
    06:00 +7°C° 0 mm 3 mps 776 mmHg 89%
    07:00 +9°C° 0 mm 3 mps 776 mmHg 85%
    08:00 +10°C° 0 mm 3 mps 776 mmHg 82%
    09:00 +11°C° 0 mm 4 mps 776 mmHg 79%
    10:00 +12°C° 0 mm 4 mps 775 mmHg 73%
    11:00 +13°C° 0 mm 4 mps 775 mmHg 68%
    12:00 +14°C° 0 mm 4 mps 774 mmHg 63%
    13:00 +15°C° 0 mm 4 mps 774 mmHg 61%
    14:00 +15°C° 0 mm 5 mps 773 mmHg 60%
    15:00 +15°C° 0 mm 5 mps 772 mmHg 58%
    16:00 +14°C° 0 mm 5 mps 772 mmHg 62%
    17:00 +13°C° 0 mm 4 mps 772 mmHg 67%
    18:00 +12°C° 0 mm 4 mps 771 mmHg 71%
    19:00 +11°C° 0 mm 4 mps 771 mmHg 75%
    20:00 +10°C° 0 mm 4 mps 771 mmHg 79%
    21:00 +10°C° 0 mm 4 mps 771 mmHg 82%
    22:00 +10°C° 0 mm 4 mps 771 mmHg 84%
    23:00 +8°C° 0 mm 4 mps 771 mmHg 87%
    Show more